SCP
0 0 0 0 0 0 0 0 0 0 0 0 0 0 0 0 0 0 0 0 0 0 0 0 0 0 0 0 0 0 0 0 0 0 0 0 0 0 0 0 -0 0 0 0 0 0 0 0 0 0 0 0 0 0
0 0 0 0 0 0 0 0 0 0 0 0 0 0 0 0 0 0 0 0 0 0 0 0 0 -0 0 0 0 0 0 0 0 0 0 0 0 0 0 0 0 0 0 0 0 0 0 0 0 0 0 -0 -0 -0
0 0 0 0 0 0 0 0 0 0 0 0 0 0 0 0 0 0 0 0 0 0 0 0 0 -0 0 -0 0 0 0 0 0 0 0 0 0 0 0 0 0 0 0 0 0 0 0 0 0 0 -0 -0 -0 0
0 0 0 0 0 0 0 0 0 0 0 0 0 0 0 0 0 0 0 0 0 0 0 0 0 -0 0 0 0 0 -0 0 0 0 0 0 0 0 0 0 0 0 0 0 0 0 -0 0 0 -0 0 0 0 0
0 0 0 0 0 0 0 0 0 0 0 0 0 0 0 0 0 0 0 0 0 0 0 0 -0 -0 0 0 0 0 0 0 0 0 0 0 0 0 0 0 0 0 0 0 0 0 0 0 0 0 0 0 0 0
0 0 0 0 0 0 0 0 0 0 0 0 0 0 0 0 0 0 0 0 0 0 0 0 0 0 0 0 0 0 0 0 0 0 0 0 0 0 0 -0 0 0 0 0 0 0 0 0 0 0 0 0 0 0
0 0 0 0 0 0 0 0 0 0 0 0 0 0 0 0 0 0 0 0 0 0 0 0 0 -0 0 0 0 0 0 0 0 0 0 0 -0 0 -0 0 0 0 -0 -0 0 -0 0 0 0 0 -0 0 0 0
0 0 0 0 0 0 0 0 0 0 0 0 0 0 0 0 0 0 0 0 0 0 0 0 -0 -0 -0 0 0 0 0 0 0 0 0 0 -0 -0 -0 0 0 0 -0 0 -0 -0 0 0 0 0 0 0 0 0
0 0 0 0 0 0 0 0 0 0 0 0 0 0 0 0 0 0 0 0 0 0 0 0 0 0 0 -0 0 0 0 0 0 0 0 0 -0 -0 0 0 0 -0 -0 0 -0 -0 0 0 0 0 0 0 0 -0
0 0 0 0 0 0 0 0 0 0 0 0 0 0 0 0 0 0 0 0 0 0 0 0 0 0 0 0 -0 0 0 0 0 0 0 0 0 0 0 0 -0 -0 -0 -0 0 -0 0 0 0 -0 0 0 0 0
0 0 0 0 0 0 0 0 0 0 0 0 0 0 0 0 0 0 0 0 0 0 0 0 0 0 0 0 0 0 -0 -0 0 0 0 0 0 0 0 0 0 -0 0 -0 -0 -0 0 -0 -0 -0 0 0 -0 0
0 0 0 0 0 0 0 0 -0 0 0 0 0 0 0 0 0 0 0 0 0 -0 -0 -0 0 0 0 0 0 0 0 0 -0 0 0 0 0 0 0 0 0 0 0 -0 -0 0 0 0 0 0 0 0 -0 -0
0 0 0 0 0 -0 0 -0 -0 0 0 0 0 0 0 0 0 0 0 0 -0 -0 -0 0 0 0 0 0 0 0 0 0 -0 0 0 0 0 0 0 0 0 -0 -0 0 -0 0 -0 0 -0 -0 0 0 0 -0
0 0 0 0 0 -0 -0 -0 -0 0 0 0 0 0 0 0 0 0 0 0 0 0 -0 -0 0 0 0 0 0 0 0 -0 0 0 0 0 0 0 0 0 -0 -0 -0 -0 -0 -0 0 -0 -0 0 -0 0 0 -0
-0 -0 0 -0 0 0 -0 -0 -0 0 0 0 0 0 -0 -0 0 0 -0 0 0 0 0 0 0 0 0 0 0 0 0 0 -0 0 0 0 0 0 0 -0 -0 -0 -0 -0 -0 -0 0 -0 -0 -0 -0 0 0 -0
0 0 0 -0 -0 0 -0 -0 0 0 0 0 0 0 -0 0 0 0 0 0 0 -0 0 0 0 0 0 0 0 0 0 0 0 0 0 0 0 0 0 -0 -0 -0 -0 -0 -0 -0 -0 0 0 0 -0 -0 -0 -0
0 0 -0 0 -0 -0 -0 0 0 0 0 0 0 0 0 0 0 -0 0 0 0 0 0 0 0 0 0 0 0 0 0 0 0 0 0 0 0 0 0 0 0 0 -0 -0 -0 -0 0 0 0 -0 -0 -0 -0 -0
0 0 0 -0 -0 0 0 0 0 0 0 0 0 0 0 0 0 0 0 0 0 0 0 0 0 0 0 0 0 0 0 0 0 0 0 0 0 0 0 0 0 0 0 0 0 0 0 0 -0 0 -0 -0 0 0
0 0 -0 -0 0 0 0 0 0 0 0 0 0 0 0 0 -0 0 0 -0 0 0 0 0 0 0 0 0 0 0 0 0 0 -0 -0 -0 -0 -0 0 0 0 0 0 0 0 0 0 0 -0 -0 -0 -0 -0 0
0 -0 -0 -0 0 0 0 0 0 0 0 0 0 0 0 0 0 0 0 0 -0 0 0 0 0 0 0 0 0 0 0 0 0 0 -0 -0 -0 -0 -0 0 0 0 0 0 -0 -0 0 0 0 -0 -0 -0 0 -0
0 0 0 0 0 0 0 0 0 0 0 0 0 0 0 0 0 0 0 0 0 0 -0 0 0 0 0 0 0 0 0 0 0 0 -0 -0 -0 0 0 0 0 0 0 0 0 -0 0 0 0 0 0 0 -0 -0
0 0 0 0 0 0 0 0 0 0 0 0 0 0 0 0 0 0 0 0 -0 -0 0 0 0 0 0 0 0 0 0 0 0 0 0 0 0 0 0 0 0 0 0 0 0 0 0 0 0 0 -0 0 0 -0
0 0 0 0 0 0 0 0 0 0 0 0 0 0 0 0 0 0 0 0 0 0 0 0 0 0 -0 0 0 0 0 0 0 0 0 0 0 0 0 0 0 0 0 0 0 0 0 0 0 0 0 0 0 0
0 0 0 0 0 0 0 0 0 0 0 0 0 0 0 0 0 0 0 0 0 0 0 -0 -0 0 0 0 0 0 0 0 0 0 0 0 0 0 0 0 0 0 0 0 0 0 0 0 0 0 -0 -0 0 0
0 0 0 0 0 0 0 0 0 0 0 0 0 0 0 0 0 0 0 0 0 0 0 0 0 0 0 0 0 0 0 0 0 0 0 0 0 0 0 0 0 0 0 0 0 0 0 0 0 -0 -0 -0 -0 0
0 0 0 0 0 0 0 0 0 0 0 0 0 0 0 0 0 0 0 0 0 0 0 0 0 0 0 0 0 0 0 0 0 0 0 0 0 0 0 0 0 0 0 0 0 0 0 0 0 0 -0 0 -0 -0
0 0 0 0 0 0 0 0 0 0 0 0 0 0 0 0 0 0 0 0 0 0 0 0 0 0 0 0 0 0 0 0 0 0 0 0 0 0 0 0 0 0 0 0 0 0 0 0 0 0 0 0 -0 -0
0 0 0 0 0 0 0 0 0 0 0 0 0 0 0 0 0 0 0 0 0 0 0 0 0 0 0 0 0 0 0 0 0 0 0 0 0 0 0 0 0 0 0 0 0 0 0 0 0 0 0 -0 -0 -0
0 0 0 0 0 0 0 0 0 0 0 0 0 0 0 0 0 0 0 0 0 0 0 0 0 0 0 0 0 0 0 0 0 0 0 0 0 0 0 0 0 0 0 0 0 0 0 0 0 0 0 0 0 0
0 0 0 0 0 0 0 0 0 0 0 0 0 0 0 0 0 0 0 0 0 0 0 0 0 0 0 0 0 0 0 0 0 0 0 0 0 0 0 0 0 0 0 0 0 0 0 0 0 0 0 0 0 0
0 0 0 0 0 0 0 0 0 0 0 0 0 0 0 0 0 0 0 0 0 0 0 0 0 0 0 0 0 0 0 0 0 0 0 0 0 0 0 0 0 0 0 0 0 0 0 0 0 0 0 0 0 0
0 0 0 0 0 0 0 0 0 0 0 0 0 0 0 0 0 0 0 0 0 0 0 0 0 0 0 0 0 0 0 0 0 0 0 0 0 0 0 0 0 0 0 0 0 0 0 0 0 0 0 0 0 0
0 0 0 0 0 0 0 0 0 0 0 0 0 0 0 0 0 0 0 0 0 0 0 0 0 0 0 0 0 0 0 0 0 0 0 0 0 0 0 0 0 0 0 0 0 0 0 0 0 0 0 0 0 0
Wind_Speed_500mb
40 44 45 37 35 33 28 28 30 31 32 29 25 25 23 20 14 15 18 18 21 13 42 37 13 16 18 22 4 20 18 9 8 6 2 4 4 3 5 3 5 6 1 4 3 6 12 17 10 3 7 34 42 48
38 39 45 36 34 31 27 28 30 29 28 26 21 21 20 17 15 16 18 20 20 29 35 45 64 45 50 50 33 13 14 9 4 4 5 4 4 5 3 4 4 2 9 5 10 9 6 14 17 6 36 38 46 60
44 43 40 35 28 26 28 26 25 25 24 24 18 20 19 17 18 17 18 22 25 22 43 20 16 25 30 30 55 13 10 7 4 10 3 4 1 5 1 6 2 8 8 3 9 2 15 50 20 42 58 55 67 69
51 50 47 41 33 28 24 25 24 23 24 21 18 21 19 19 20 17 19 23 25 11 9 16 11 21 13 9 21 43 32 13 11 9 2 2 3 7 3 6 4 6 6 2 9 9 42 1 51 57 75 76 72 80
40 41 47 44 35 32 23 21 21 21 21 18 18 21 18 17 19 17 22 32 28 17 8 25 50 30 29 15 26 28 26 19 7 4 2 5 7 3 3 3 2 3 4 4 8 11 11 41 59 67 67 75 78 81
42 41 38 45 40 35 30 24 20 19 22 18 18 21 17 16 21 12 9 10 12 23 8 7 15 11 21 29 35 32 27 21 6 3 7 10 9 2 2 3 7 9 2 12 14 39 41 57 51 52 67 81 86 79
44 44 38 40 45 38 31 32 26 19 19 19 20 23 19 21 25 18 8 4 14 9 7 10 11 11 11 29 29 26 26 13 8 4 5 7 7 5 2 5 4 9 21 19 13 39 29 31 54 67 67 73 75 77
40 42 48 42 44 38 33 30 27 19 22 22 21 23 17 21 25 26 29 28 19 13 9 5 7 12 7 19 12 21 14 16 10 7 6 6 2 1 4 7 2 15 18 9 29 31 39 50 53 61 66 72 77 78
34 37 33 30 36 34 30 26 22 21 24 26 27 19 15 18 13 13 20 24 23 19 6 7 4 5 13 23 12 13 15 5 9 6 5 7 4 6 5 3 8 13 14 29 38 40 46 48 54 61 66 73 74 71
28 26 22 21 27 30 26 21 19 23 33 34 26 12 8 8 10 9 2 4 9 11 11 7 7 6 12 10 18 15 13 7 5 7 5 3 4 11 9 3 6 15 21 28 33 42 58 64 61 62 62 66 70 70
29 29 26 25 28 27 27 22 26 37 43 36 16 10 11 8 13 6 8 9 9 7 11 14 23 11 12 9 6 13 7 7 5 3 4 4 3 6 11 3 8 10 19 26 27 38 47 48 51 58 60 64 68 72
32 28 24 21 23 25 26 31 38 53 35 28 20 17 15 10 9 6 6 8 9 7 11 10 18 24 16 16 2 4 2 2 5 13 3 3 3 21 18 4 8 16 21 23 26 36 46 51 50 50 53 56 63 70
35 34 32 28 26 28 33 36 41 58 38 33 9 10 9 10 9 10 10 6 6 9 12 12 8 18 15 8 1 3 2 1 22 4 4 1 18 16 7 7 16 14 19 22 24 31 40 46 50 52 52 49 57 64
35 38 37 35 29 29 32 43 66 62 29 9 14 9 8 9 9 9 6 4 8 14 29 21 6 14 7 4 4 1 3 7 5 4 4 5 19 9 4 11 14 19 22 25 25 32 38 44 51 59 54 52 58 65
34 33 33 45 36 31 32 57 79 65 11 11 11 9 13 19 6 12 22 22 24 37 27 12 7 5 1 2 0 4 5 4 2 4 6 21 15 3 9 16 15 19 22 25 27 31 36 43 50 54 58 54 54 61
28 32 38 29 30 31 57 82 67 42 11 9 11 8 18 5 10 21 17 20 13 20 26 15 4 3 6 6 3 7 3 4 4 5 33 27 14 3 9 17 16 15 18 20 23 24 31 38 47 50 58 56 49 59
24 36 26 28 28 51 83 73 31 12 11 9 11 26 29 10 13 19 23 28 20 19 6 5 7 10 4 4 1 5 8 6 30 42 28 15 11 10 15 18 24 32 34 36 34 35 41 41 45 60 63 57 47 52
33 32 29 34 62 91 58 23 15 16 12 21 9 14 24 17 14 13 11 15 18 22 8 3 1 5 6 8 5 6 10 22 33 30 19 15 20 15 15 18 20 30 31 29 29 37 43 43 43 60 58 52 50 48
38 36 36 48 72 52 16 18 13 11 22 9 27 9 15 20 22 30 21 21 19 3 3 5 4 5 6 7 10 27 35 49 39 26 21 24 19 13 14 15 10 21 30 25 32 35 41 40 36 55 57 54 61 54
32 33 61 85 79 13 10 8 16 7 6 13 14 25 21 14 15 23 23 25 25 9 4 3 3 5 13 24 24 34 38 42 40 33 25 21 17 16 14 17 19 22 21 24 26 31 36 41 42 50 53 56 59 59
56 90 88 75 30 11 9 13 12 10 7 11 18 23 10 20 24 23 19 28 10 7 4 6 28 32 30 36 36 36 37 35 35 29 29 22 26 19 21 14 14 15 18 21 28 31 34 38 39 43 47 46 51 58
67 77 57 38 6 6 7 14 10 8 7 8 16 19 7 8 10 19 11 6 8 22 16 34 41 42 40 34 28 27 35 41 35 36 29 32 33 26 17 8 3 15 19 19 23 24 27 29 31 38 45 46 46 55
78 58 22 8 5 8 6 18 9 9 5 7 14 6 6 7 22 15 7 8 10 12 24 43 42 34 32 31 27 22 23 30 30 24 21 20 19 21 18 13 5 3 7 14 15 20 20 21 25 34 40 47 45 52
56 20 8 13 10 8 11 12 9 8 6 6 6 5 5 10 23 9 5 6 17 39 50 49 43 43 37 31 30 30 17 25 29 21 17 26 23 24 16 17 13 7 5 6 7 16 18 22 23 25 34 40 45 46
14 10 11 7 11 10 8 9 7 8 6 6 8 5 5 7 5 5 4 8 44 54 52 49 46 37 34 29 29 28 23 21 19 22 18 17 19 34 25 18 12 9 6 3 7 16 18 15 21 23 28 36 43 47
6 12 15 16 10 9 8 10 12 9 5 6 8 9 6 5 6 5 2 14 29 44 47 48 44 35 26 34 34 32 22 20 33 31 22 18 17 18 20 15 10 9 7 8 7 15 19 18 19 22 24 31 37 41
7 7 12 13 9 8 5 2 12 6 6 7 6 6 4 6 4 4 8 16 17 6 45 39 38 37 37 43 40 34 27 29 22 24 25 19 14 10 6 2 7 9 6 10 13 17 20 21 22 24 27 31 38 43
5 12 8 15 8 6 4 5 6 6 4 6 12 5 6 5 4 5 9 9 18 13 18 22 21 30 50 52 40 32 24 25 29 26 20 12 8 7 8 12 14 9 4 9 15 18 20 26 31 32 36 39 39 40
3 5 17 5 3 7 4 2 4 5 3 6 4 5 6 8 9 11 16 23 24 22 29 42 52 53 48 38 30 25 28 30 27 21 17 30 26 17 10 7 6 2 10 16 17 18 23 30 35 37 37 37 36 35
7 10 7 5 5 5 9 9 13 10 16 21 20 32 35 38 33 21 23 27 28 27 33 39 40 36 44 44 41 33 25 25 30 29 34 33 26 20 13 10 11 12 15 18 21 24 29 33 36 35 32 33 35 35
15 9 8 9 8 20 40 44 38 37 36 41 44 39 20 13 33 28 28 26 23 29 33 32 35 31 33 37 33 28 24 15 15 22 31 27 20 13 10 12 15 18 20 22 25 29 34 37 37 33 32 32 33 34
8 6 11 6 6 21 28 18 15 14 14 16 14 19 17 13 13 24 30 32 33 31 27 24 28 32 32 30 25 21 20 17 15 13 11 11 14 14 13 15 19 21 22 23 24 28 31 33 31 30 29 30 32 34
13 24 23 10 6 6 9 12 8 8 11 9 11 17 17 10 10 10 22 32 40 41 39 39 38 36 32 29 28 26 18 11 7 9 14 14 12 9 9 10 10 14 21 25 28 27 27 28 28 28 27 28 29 31
Wind_Direction_500mb
284 287 291 292 295 297 302 293 289 289 289 285 279 284 290 286 276 292 313 312 248 250 280 279 270 257 259 266 279 326 337 1 13 38 17 320 14 328 47 247 187 196 181 231 190 228 289 13 349 49 278 320 311 311
281 284 284 288 291 304 296 288 287 291 292 284 276 271 279 274 255 278 297 318 282 254 261 275 288 276 257 247 266 290 293 307 349 53 5 13 350 353 147 288 105 119 185 204 171 230 258 316 282 288 336 311 307 307
277 279 280 279 292 299 300 297 294 288 282 277 265 258 264 255 240 267 290 305 307 280 293 275 281 273 307 280 248 243 241 5 39 15 228 257 305 136 328 267 107 347 38 133 25 277 316 318 325 323 327 314 314 311
277 271 269 272 268 276 293 286 292 285 283 273 252 246 255 248 234 256 277 303 310 280 280 282 271 239 269 291 213 209 243 297 310 328 263 208 248 191 258 239 146 235 348 16 263 304 330 16 325 323 322 323 316 312
295 278 262 260 260 260 266 288 287 289 284 268 246 239 246 243 229 264 274 294 287 249 282 287 299 269 238 256 217 215 229 231 273 342 261 238 244 282 331 79 240 209 187 128 246 307 281 287 305 319 315 312 313 312
293 290 275 254 250 254 255 269 281 285 277 259 237 230 236 229 223 253 282 256 301 223 277 289 304 278 251 260 203 212 217 222 228 274 260 271 237 100 55 276 91 101 102 303 280 304 298 300 313 317 316 325 323 326
286 290 284 261 243 244 251 262 261 272 275 241 223 220 236 222 226 213 227 287 327 192 266 290 290 286 275 192 196 209 203 220 197 244 249 261 284 174 123 227 130 346 338 331 323 331 315 320 316 324 324 324 331 330
280 289 285 270 236 238 240 254 253 260 269 216 215 219 242 226 242 248 249 258 266 223 252 273 275 295 257 188 186 202 185 195 209 224 242 245 286 156 243 122 38 353 349 332 339 333 317 320 321 327 338 337 335 338
286 293 287 258 226 231 241 248 257 258 223 196 198 210 208 221 233 247 262 270 248 209 246 233 261 280 335 207 168 172 187 195 211 202 242 157 212 229 155 169 327 357 346 330 339 335 331 330 332 339 341 340 338 340
277 287 278 246 231 228 231 242 252 223 192 192 187 181 206 215 189 183 131 184 189 216 241 242 241 259 322 322 184 186 184 198 178 223 171 198 245 138 178 189 345 5 339 340 338 340 337 340 340 336 339 339 342 341
257 267 268 253 239 231 234 228 235 190 178 178 188 181 174 150 160 195 219 204 193 239 225 235 222 226 270 248 224 198 196 174 170 160 196 218 217 148 189 223 23 347 321 331 339 328 331 334 333 334 338 347 346 349
248 253 258 255 243 239 239 222 222 200 197 191 156 146 156 185 207 234 205 187 211 238 211 213 207 195 235 235 196 328 203 41 143 153 172 232 210 155 154 146 327 335 336 344 344 334 337 345 351 346 348 351 354 359
245 248 253 251 254 251 215 224 224 211 179 139 147 154 176 185 220 223 206 195 222 213 219 221 171 191 224 259 13 47 301 133 128 194 165 190 126 131 121 328 333 335 340 343 342 340 347 360 8 5 357 359 359 1
253 253 247 248 251 244 232 216 206 186 164 144 161 185 209 198 228 204 238 171 238 304 317 318 220 200 194 106 179 174 242 146 205 196 137 142 150 147 342 343 352 357 352 350 347 343 342 359 7 13 10 8 4 7
255 250 244 251 242 235 220 208 195 187 146 166 189 218 215 231 194 228 262 261 256 272 280 323 316 154 317 124 326 60 310 263 164 156 182 158 157 268 343 348 355 352 348 343 344 342 343 350 0 5 12 12 10 13
245 246 251 235 211 221 201 181 175 178 169 192 220 249 257 270 222 229 240 273 217 242 267 256 236 341 201 155 110 224 142 235 214 146 142 148 153 105 9 360 357 355 0 0 345 360 8 2 359 6 12 12 14 18
232 247 242 219 203 192 187 172 161 169 200 217 232 235 248 291 249 249 226 241 239 276 220 158 139 189 168 91 277 168 188 212 136 143 153 163 142 93 52 46 59 50 50 45 46 36 24 21 18 14 10 13 15 19
236 253 224 197 178 169 160 163 158 186 223 226 238 250 225 227 255 277 249 242 278 261 261 230 199 191 168 176 245 212 145 138 159 153 147 141 125 95 66 57 50 47 40 41 41 31 24 18 17 14 11 13 17 16
233 221 202 196 184 157 144 168 166 206 225 238 232 234 217 238 257 244 266 268 267 237 304 232 239 209 217 175 158 159 145 151 149 138 119 129 113 114 64 39 24 46 46 49 45 30 26 27 21 14 18 20 22 17
202 199 185 184 172 120 119 142 170 214 228 217 218 222 225 238 273 222 265 269 249 249 224 220 218 215 163 149 152 160 170 163 147 141 150 160 147 118 97 83 80 68 56 49 44 28 23 29 27 17 17 21 23 20
172 169 169 170 137 109 138 161 176 206 219 215 219 203 221 235 230 236 274 220 270 226 228 192 137 131 134 132 138 143 160 176 159 148 149 166 161 140 132 107 86 57 37 36 37 32 26 27 25 17 18 22 21 24
157 163 156 163 94 115 137 179 167 192 230 245 178 192 224 202 169 206 224 232 247 233 221 165 150 145 140 138 135 134 131 144 142 141 132 132 142 148 140 118 140 70 52 47 40 24 14 18 25 23 18 19 21 23
156 158 122 114 122 167 176 181 186 197 231 193 164 208 223 194 182 182 219 239 252 235 199 166 154 160 154 147 140 128 137 133 134 141 148 148 145 156 143 121 90 195 25 34 25 20 30 22 26 25 19 18 20 22
155 138 128 167 171 172 172 181 208 194 225 183 176 218 199 201 170 153 216 229 168 154 154 160 164 155 154 158 154 150 150 163 149 129 130 153 149 158 150 131 121 97 44 28 19 13 22 27 28 28 19 16 17 17
119 170 168 177 193 170 189 167 190 206 207 171 198 204 224 84 120 199 234 173 161 165 166 171 175 179 174 168 161 155 151 172 183 168 138 155 159 161 146 134 117 80 43 60 23 14 22 21 23 24 10 7 10 8
143 181 186 189 182 191 188 175 187 196 164 160 197 139 186 169 144 166 30 338 171 171 178 180 183 182 173 169 167 175 167 167 182 169 161 185 150 165 156 138 117 82 45 35 355 8 16 15 5 6 359 359 2 2
162 181 198 207 203 181 179 86 120 112 177 177 158 130 172 158 113 37 50 71 99 148 196 192 196 195 181 174 172 174 157 167 190 186 173 183 199 187 200 236 103 126 55 11 360 352 353 357 354 351 346 350 353 354
192 172 176 170 177 208 167 136 142 165 158 143 138 136 128 50 76 21 59 71 151 110 164 184 193 178 168 164 166 165 156 166 169 167 156 142 144 116 104 101 96 110 60 350 343 334 339 345 346 344 340 345 350 350
177 171 134 134 126 199 160 80 72 74 90 119 87 98 98 74 66 115 47 121 145 138 127 130 133 142 143 148 160 166 159 167 180 180 173 152 152 143 175 199 210 267 306 302 307 322 330 336 339 338 336 339 346 348
187 131 104 103 75 55 35 89 89 92 131 123 108 106 94 79 75 108 112 121 119 130 141 139 144 161 158 162 152 149 151 174 198 205 185 159 154 167 201 251 266 268 274 281 290 303 308 314 323 329 331 334 339 345
132 101 76 62 74 76 90 108 107 104 96 93 121 110 104 93 81 86 98 105 116 132 148 147 161 173 178 174 174 161 126 125 153 169 171 173 181 207 242 265 271 278 290 295 300 307 316 325 333 338 340 341 344 346
108 113 121 104 82 104 105 63 60 73 61 69 56 82 78 71 62 32 54 103 106 128 142 161 166 160 172 173 166 153 140 139 166 184 212 242 264 275 275 275 281 287 290 295 305 315 324 334 340 344 347 347 349 349
96 104 103 98 100 89 95 101 83 77 58 60 59 64 66 70 77 42 53 102 116 128 128 124 121 123 131 137 137 139 144 170 219 256 270 273 272 278 278 281 283 289 300 310 316 322 329 334 341 345 350 352 351 351
Wind_Speed_850mb
40 44 45 37 35 33 28 28 30 31 32 29 25 25 23 20 14 15 18 18 21 13 42 37 13 16 18 22 4 20 18 9 8 6 2 4 4 3 5 3 5 6 1 4 3 6 12 17 10 3 7 34 42 48
38 39 45 36 34 31 27 28 30 29 28 26 21 21 20 17 15 16 18 20 20 29 35 45 64 45 50 50 33 13 14 9 4 4 5 4 4 5 3 4 4 2 9 5 10 9 6 14 17 6 36 38 46 60
44 43 40 35 28 26 28 26 25 25 24 24 18 20 19 17 18 17 18 22 25 22 43 20 16 25 30 30 55 13 10 7 4 10 3 4 1 5 1 6 2 8 8 3 9 2 15 50 20 42 58 55 67 69
51 50 47 41 33 28 24 25 24 23 24 21 18 21 19 19 20 17 19 23 25 11 9 16 11 21 13 9 21 43 32 13 11 9 2 2 3 7 3 6 4 6 6 2 9 9 42 1 51 57 75 76 72 80
40 41 47 44 35 32 23 21 21 21 21 18 18 21 18 17 19 17 22 32 28 17 8 25 50 30 29 15 26 28 26 19 7 4 2 5 7 3 3 3 2 3 4 4 8 11 11 41 59 67 67 75 78 81
42 41 38 45 40 35 30 24 20 19 22 18 18 21 17 16 21 12 9 10 12 23 8 7 15 11 21 29 35 32 27 21 6 3 7 10 9 2 2 3 7 9 2 12 14 39 41 57 51 52 67 81 86 79
44 44 38 40 45 38 31 32 26 19 19 19 20 23 19 21 25 18 8 4 14 9 7 10 11 11 11 29 29 26 26 13 8 4 5 7 7 5 2 5 4 9 21 19 13 39 29 31 54 67 67 73 75 77
40 42 48 42 44 38 33 30 27 19 22 22 21 23 17 21 25 26 29 28 19 13 9 5 7 12 7 19 12 21 14 16 10 7 6 6 2 1 4 7 2 15 18 9 29 31 39 50 53 61 66 72 77 78
34 37 33 30 36 34 30 26 22 21 24 26 27 19 15 18 13 13 20 24 23 19 6 7 4 5 13 23 12 13 15 5 9 6 5 7 4 6 5 3 8 13 14 29 38 40 46 48 54 61 66 73 74 71
28 26 22 21 27 30 26 21 19 23 33 34 26 12 8 8 10 9 2 4 9 11 11 7 7 6 12 10 18 15 13 7 5 7 5 3 4 11 9 3 6 15 21 28 33 42 58 64 61 62 62 66 70 70
29 29 26 25 28 27 27 22 26 37 43 36 16 10 11 8 13 6 8 9 9 7 11 14 23 11 12 9 6 13 7 7 5 3 4 4 3 6 11 3 8 10 19 26 27 38 47 48 51 58 60 64 68 72
32 28 24 21 23 25 26 31 38 53 35 28 20 17 15 10 9 6 6 8 9 7 11 10 18 24 16 16 2 4 2 2 5 13 3 3 3 21 18 4 8 16 21 23 26 36 46 51 50 50 53 56 63 70
35 34 32 28 26 28 33 36 41 58 38 33 9 10 9 10 9 10 10 6 6 9 12 12 8 18 15 8 1 3 2 1 22 4 4 1 18 16 7 7 16 14 19 22 24 31 40 46 50 52 52 49 57 64
35 38 37 35 29 29 32 43 66 62 29 9 14 9 8 9 9 9 6 4 8 14 29 21 6 14 7 4 4 1 3 7 5 4 4 5 19 9 4 11 14 19 22 25 25 32 38 44 51 59 54 52 58 65
34 33 33 45 36 31 32 57 79 65 11 11 11 9 13 19 6 12 22 22 24 37 27 12 7 5 1 2 0 4 5 4 2 4 6 21 15 3 9 16 15 19 22 25 27 31 36 43 50 54 58 54 54 61
28 32 38 29 30 31 57 82 67 42 11 9 11 8 18 5 10 21 17 20 13 20 26 15 4 3 6 6 3 7 3 4 4 5 33 27 14 3 9 17 16 15 18 20 23 24 31 38 47 50 58 56 49 59
24 36 26 28 28 51 83 73 31 12 11 9 11 26 29 10 13 19 23 28 20 19 6 5 7 10 4 4 1 5 8 6 30 42 28 15 11 10 15 18 24 32 34 36 34 35 41 41 45 60 63 57 47 52
33 32 29 34 62 91 58 23 15 16 12 21 9 14 24 17 14 13 11 15 18 22 8 3 1 5 6 8 5 6 10 22 33 30 19 15 20 15 15 18 20 30 31 29 29 37 43 43 43 60 58 52 50 48
38 36 36 48 72 52 16 18 13 11 22 9 27 9 15 20 22 30 21 21 19 3 3 5 4 5 6 7 10 27 35 49 39 26 21 24 19 13 14 15 10 21 30 25 32 35 41 40 36 55 57 54 61 54
32 33 61 85 79 13 10 8 16 7 6 13 14 25 21 14 15 23 23 25 25 9 4 3 3 5 13 24 24 34 38 42 40 33 25 21 17 16 14 17 19 22 21 24 26 31 36 41 42 50 53 56 59 59
56 90 88 75 30 11 9 13 12 10 7 11 18 23 10 20 24 23 19 28 10 7 4 6 28 32 30 36 36 36 37 35 35 29 29 22 26 19 21 14 14 15 18 21 28 31 34 38 39 43 47 46 51 58
67 77 57 38 6 6 7 14 10 8 7 8 16 19 7 8 10 19 11 6 8 22 16 34 41 42 40 34 28 27 35 41 35 36 29 32 33 26 17 8 3 15 19 19 23 24 27 29 31 38 45 46 46 55
78 58 22 8 5 8 6 18 9 9 5 7 14 6 6 7 22 15 7 8 10 12 24 43 42 34 32 31 27 22 23 30 30 24 21 20 19 21 18 13 5 3 7 14 15 20 20 21 25 34 40 47 45 52
56 20 8 13 10 8 11 12 9 8 6 6 6 5 5 10 23 9 5 6 17 39 50 49 43 43 37 31 30 30 17 25 29 21 17 26 23 24 16 17 13 7 5 6 7 16 18 22 23 25 34 40 45 46
14 10 11 7 11 10 8 9 7 8 6 6 8 5 5 7 5 5 4 8 44 54 52 49 46 37 34 29 29 28 23 21 19 22 18 17 19 34 25 18 12 9 6 3 7 16 18 15 21 23 28 36 43 47
6 12 15 16 10 9 8 10 12 9 5 6 8 9 6 5 6 5 2 14 29 44 47 48 44 35 26 34 34 32 22 20 33 31 22 18 17 18 20 15 10 9 7 8 7 15 19 18 19 22 24 31 37 41
7 7 12 13 9 8 5 2 12 6 6 7 6 6 4 6 4 4 8 16 17 6 45 39 38 37 37 43 40 34 27 29 22 24 25 19 14 10 6 2 7 9 6 10 13 17 20 21 22 24 27 31 38 43
5 12 8 15 8 6 4 5 6 6 4 6 12 5 6 5 4 5 9 9 18 13 18 22 21 30 50 52 40 32 24 25 29 26 20 12 8 7 8 12 14 9 4 9 15 18 20 26 31 32 36 39 39 40
3 5 17 5 3 7 4 2 4 5 3 6 4 5 6 8 9 11 16 23 24 22 29 42 52 53 48 38 30 25 28 30 27 21 17 30 26 17 10 7 6 2 10 16 17 18 23 30 35 37 37 37 36 35
7 10 7 5 5 5 9 9 13 10 16 21 20 32 35 38 33 21 23 27 28 27 33 39 40 36 44 44 41 33 25 25 30 29 34 33 26 20 13 10 11 12 15 18 21 24 29 33 36 35 32 33 35 35
15 9 8 9 8 20 40 44 38 37 36 41 44 39 20 13 33 28 28 26 23 29 33 32 35 31 33 37 33 28 24 15 15 22 31 27 20 13 10 12 15 18 20 22 25 29 34 37 37 33 32 32 33 34
8 6 11 6 6 21 28 18 15 14 14 16 14 19 17 13 13 24 30 32 33 31 27 24 28 32 32 30 25 21 20 17 15 13 11 11 14 14 13 15 19 21 22 23 24 28 31 33 31 30 29 30 32 34
13 24 23 10 6 6 9 12 8 8 11 9 11 17 17 10 10 10 22 32 40 41 39 39 38 36 32 29 28 26 18 11 7 9 14 14 12 9 9 10 10 14 21 25 28 27 27 28 28 28 27 28 29 31
Wind_Direction_850mb
284 287 291 292 295 297 302 293 289 289 289 285 279 284 290 286 276 292 313 312 248 250 280 279 270 257 259 266 279 326 337 1 13 38 17 320 14 328 47 247 187 196 181 231 190 228 289 13 349 49 278 320 311 311
281 284 284 288 291 304 296 288 287 291 292 284 276 271 279 274 255 278 297 318 282 254 261 275 288 276 257 247 266 290 293 307 349 53 5 13 350 353 147 288 105 119 185 204 171 230 258 316 282 288 336 311 307 307
277 279 280 279 292 299 300 297 294 288 282 277 265 258 264 255 240 267 290 305 307 280 293 275 281 273 307 280 248 243 241 5 39 15 228 257 305 136 328 267 107 347 38 133 25 277 316 318 325 323 327 314 314 311
277 271 269 272 268 276 293 286 292 285 283 273 252 246 255 248 234 256 277 303 310 280 280 282 271 239 269 291 213 209 243 297 310 328 263 208 248 191 258 239 146 235 348 16 263 304 330 16 325 323 322 323 316 312
295 278 262 260 260 260 266 288 287 289 284 268 246 239 246 243 229 264 274 294 287 249 282 287 299 269 238 256 217 215 229 231 273 342 261 238 244 282 331 79 240 209 187 128 246 307 281 287 305 319 315 312 313 312
293 290 275 254 250 254 255 269 281 285 277 259 237 230 236 229 223 253 282 256 301 223 277 289 304 278 251 260 203 212 217 222 228 274 260 271 237 100 55 276 91 101 102 303 280 304 298 300 313 317 316 325 323 326
286 290 284 261 243 244 251 262 261 272 275 241 223 220 236 222 226 213 227 287 327 192 266 290 290 286 275 192 196 209 203 220 197 244 249 261 284 174 123 227 130 346 338 331 323 331 315 320 316 324 324 324 331 330
280 289 285 270 236 238 240 254 253 260 269 216 215 219 242 226 242 248 249 258 266 223 252 273 275 295 257 188 186 202 185 195 209 224 242 245 286 156 243 122 38 353 349 332 339 333 317 320 321 327 338 337 335 338
286 293 287 258 226 231 241 248 257 258 223 196 198 210 208 221 233 247 262 270 248 209 246 233 261 280 335 207 168 172 187 195 211 202 242 157 212 229 155 169 327 357 346 330 339 335 331 330 332 339 341 340 338 340
277 287 278 246 231 228 231 242 252 223 192 192 187 181 206 215 189 183 131 184 189 216 241 242 241 259 322 322 184 186 184 198 178 223 171 198 245 138 178 189 345 5 339 340 338 340 337 340 340 336 339 339 342 341
257 267 268 253 239 231 234 228 235 190 178 178 188 181 174 150 160 195 219 204 193 239 225 235 222 226 270 248 224 198 196 174 170 160 196 218 217 148 189 223 23 347 321 331 339 328 331 334 333 334 338 347 346 349
248 253 258 255 243 239 239 222 222 200 197 191 156 146 156 185 207 234 205 187 211 238 211 213 207 195 235 235 196 328 203 41 143 153 172 232 210 155 154 146 327 335 336 344 344 334 337 345 351 346 348 351 354 359
245 248 253 251 254 251 215 224 224 211 179 139 147 154 176 185 220 223 206 195 222 213 219 221 171 191 224 259 13 47 301 133 128 194 165 190 126 131 121 328 333 335 340 343 342 340 347 360 8 5 357 359 359 1
253 253 247 248 251 244 232 216 206 186 164 144 161 185 209 198 228 204 238 171 238 304 317 318 220 200 194 106 179 174 242 146 205 196 137 142 150 147 342 343 352 357 352 350 347 343 342 359 7 13 10 8 4 7
255 250 244 251 242 235 220 208 195 187 146 166 189 218 215 231 194 228 262 261 256 272 280 323 316 154 317 124 326 60 310 263 164 156 182 158 157 268 343 348 355 352 348 343 344 342 343 350 0 5 12 12 10 13
245 246 251 235 211 221 201 181 175 178 169 192 220 249 257 270 222 229 240 273 217 242 267 256 236 341 201 155 110 224 142 235 214 146 142 148 153 105 9 360 357 355 0 0 345 360 8 2 359 6 12 12 14 18
232 247 242 219 203 192 187 172 161 169 200 217 232 235 248 291 249 249 226 241 239 276 220 158 139 189 168 91 277 168 188 212 136 143 153 163 142 93 52 46 59 50 50 45 46 36 24 21 18 14 10 13 15 19
236 253 224 197 178 169 160 163 158 186 223 226 238 250 225 227 255 277 249 242 278 261 261 230 199 191 168 176 245 212 145 138 159 153 147 141 125 95 66 57 50 47 40 41 41 31 24 18 17 14 11 13 17 16
233 221 202 196 184 157 144 168 166 206 225 238 232 234 217 238 257 244 266 268 267 237 304 232 239 209 217 175 158 159 145 151 149 138 119 129 113 114 64 39 24 46 46 49 45 30 26 27 21 14 18 20 22 17
202 199 185 184 172 120 119 142 170 214 228 217 218 222 225 238 273 222 265 269 249 249 224 220 218 215 163 149 152 160 170 163 147 141 150 160 147 118 97 83 80 68 56 49 44 28 23 29 27 17 17 21 23 20
172 169 169 170 137 109 138 161 176 206 219 215 219 203 221 235 230 236 274 220 270 226 228 192 137 131 134 132 138 143 160 176 159 148 149 166 161 140 132 107 86 57 37 36 37 32 26 27 25 17 18 22 21 24
157 163 156 163 94 115 137 179 167 192 230 245 178 192 224 202 169 206 224 232 247 233 221 165 150 145 140 138 135 134 131 144 142 141 132 132 142 148 140 118 140 70 52 47 40 24 14 18 25 23 18 19 21 23
156 158 122 114 122 167 176 181 186 197 231 193 164 208 223 194 182 182 219 239 252 235 199 166 154 160 154 147 140 128 137 133 134 141 148 148 145 156 143 121 90 195 25 34 25 20 30 22 26 25 19 18 20 22
155 138 128 167 171 172 172 181 208 194 225 183 176 218 199 201 170 153 216 229 168 154 154 160 164 155 154 158 154 150 150 163 149 129 130 153 149 158 150 131 121 97 44 28 19 13 22 27 28 28 19 16 17 17
119 170 168 177 193 170 189 167 190 206 207 171 198 204 224 84 120 199 234 173 161 165 166 171 175 179 174 168 161 155 151 172 183 168 138 155 159 161 146 134 117 80 43 60 23 14 22 21 23 24 10 7 10 8
143 181 186 189 182 191 188 175 187 196 164 160 197 139 186 169 144 166 30 338 171 171 178 180 183 182 173 169 167 175 167 167 182 169 161 185 150 165 156 138 117 82 45 35 355 8 16 15 5 6 359 359 2 2
162 181 198 207 203 181 179 86 120 112 177 177 158 130 172 158 113 37 50 71 99 148 196 192 196 195 181 174 172 174 157 167 190 186 173 183 199 187 200 236 103 126 55 11 360 352 353 357 354 351 346 350 353 354
192 172 176 170 177 208 167 136 142 165 158 143 138 136 128 50 76 21 59 71 151 110 164 184 193 178 168 164 166 165 156 166 169 167 156 142 144 116 104 101 96 110 60 350 343 334 339 345 346 344 340 345 350 350
177 171 134 134 126 199 160 80 72 74 90 119 87 98 98 74 66 115 47 121 145 138 127 130 133 142 143 148 160 166 159 167 180 180 173 152 152 143 175 199 210 267 306 302 307 322 330 336 339 338 336 339 346 348
187 131 104 103 75 55 35 89 89 92 131 123 108 106 94 79 75 108 112 121 119 130 141 139 144 161 158 162 152 149 151 174 198 205 185 159 154 167 201 251 266 268 274 281 290 303 308 314 323 329 331 334 339 345
132 101 76 62 74 76 90 108 107 104 96 93 121 110 104 93 81 86 98 105 116 132 148 147 161 173 178 174 174 161 126 125 153 169 171 173 181 207 242 265 271 278 290 295 300 307 316 325 333 338 340 341 344 346
108 113 121 104 82 104 105 63 60 73 61 69 56 82 78 71 62 32 54 103 106 128 142 161 166 160 172 173 166 153 140 139 166 184 212 242 264 275 275 275 281 287 290 295 305 315 324 334 340 344 347 347 349 349
96 104 103 98 100 89 95 101 83 77 58 60 59 64 66 70 77 42 53 102 116 128 128 124 121 123 131 137 137 139 144 170 219 256 270 273 272 278 278 281 283 289 300 310 316 322 329 334 341 345 350 352 351 351